sat.trackr.live / text

‹ back to catalog

CUAVA-2

NORAD 60527 · 2024-149BM

PAYLOAD ACTIVE UNKNOWN

§ Identity

Operator
Country
AUS
Launch date
2024-08-16
Launch site
AFWTR
Launch vehicle
Mass (kg)
RCS (m²)

External: N2YO · Heavens-Above · Gunter

§ Orbital elements

Epoch: 2026-09-22T17:29:50.533440Z

Period
93.62 min
Inclination
97.3670°
Eccentricity
0.0005067
Mean motion
15.38150702 rev/d
Perigee alt
448.1 km
Apogee alt
455.0 km
Semi-major
6,829.7 km
B*
2.4364e-4
RAAN
347.5233°
Arg perigee
309.4584°
Mean anomaly
50.6212°
Rev number
11,715

§ Raw data

CUAVA-21 60527U 24149BM  26265.72905710  .00009073  00000+0  24364-3 0  99922 60527  97.3670 347.5233 0005067 309.4584  50.6212 15.38150702117155

JSON: /api/v1/satellites/60527 · /tle

For live sub-satellite position, see the globe view (requires WebGL).

§ Visibility from observer

Set your observer location to see the next 7 days of passes ≥ 10°. The values pass through the URL so the page stays shareable.

No JS? Fill the form by hand. The geolocation button needs JavaScript.

§ Radio — SatNOGS DB

ModeDescriptionDownlinkUplink
BPSK Mode U - BPSK1k2 400.650 MHz
QPSK Mode S - Downlink (inactive) 2.259 GHz

2 transmitters · refreshed weekly from db.satnogs.org